User: anonymous   Login
Location: Unspecified
(0.0000°N, 0.0000°E)
Time: 23:58:35
(UTC+00:00)
Language:

STARLINK-2106 - Orbit

View from above orbital plane
View from above orbital plane
View from above satellite
View from above satellite

Ground track
Ground track

The orbit is defined by the following mean orbital elements,

1 47386U          26145.40223578 +.00000000 +00000-0 +14503-3 0 00006
2 47386  53.1591  40.3709 0001164  91.4955 268.6179 15.30195748    04
Epoch (UTC): 25 May 2026 09:39:13
Eccentricity: 0.0001164
inclination: 53.1591°
perigee height: 474 km
apogee height: 476 km
right ascension of ascending node: 40.3709°
argument of perigee: 91.4955°
revolutions per day: 15.30195748
mean anomaly at epoch: 268.6179°

The dashed part of the orbit path shows where the satellite is in the earth's shadow,  

DLR